Location: McKinney
(33.1972°N, 96.6398°W)
Time: 13:20:50
(UTC-05:00)

ISS - Pass Details

Date: 01 May 2019
Orbit: 407 x 410 km, 51.6° (Epoch: 20 May)

Event Time Altitude Azimuth Distance (km) Brightness Sun altitude
Exits shadow 05:13:09 26° 302° (WNW) 834 -2.5 -17.1°
Maximum altitude 05:13:44 28° 322° (NW) 794 -2.4 -17.0°
Drops below altitude 10° 05:16:40 10° 25° (NNE) 1,475 -0.2 -16.4°
Sets 05:18:57 0° 37° (NE) 2,340 1.3 -16.0°
